EW3232 Weather Reports


time (UTC)temp
C
wind
direction
speed
KPH
gust
KPH
rain 1hr
cm
rain 24hr
cm
rain mn
cm
humidity
%
barometer
mb
20260902113029 27 23 9.7 20.9 0.00 0.00 0.00 68 1022.1
20260902111556 28 83 8.0 19.3 0.00 0.00 0.00 65 1022.3
20260902110104 27 10 9.7 19.3 0.00 0.00 0.00 64 1022.3
20260902104624 27 132 8.0 19.3 0.00 0.00 0.00 66 1022.4
20260902103131 27 37 6.4 17.7 0.00 0.00 0.00 65 1022.6
20260902101647 27 88 6.4 17.7 0.00 0.00 0.00 65 1022.5
20260902100005 26 83 9.7 17.7 0.00 0.00 0.00 67 1022.4
20260902094627 26 58 11.3 16.1 0.00 0.00 0.00 68 1022.4
20260902093135 26 64 6.4 16.1 0.00 0.00 0.00 68 1022.1
20260902091643 25 42 3.2 11.3 0.00 0.00 0.00 70 1022.0
20260902090136 25 56 8.0 14.5 0.00 0.00 0.00 71 1022.0
20260902084611 25 69 6.4 16.1 0.00 0.00 0.00 72 1021.8
20260902083132 24 71 9.7 11.3 0.00 0.00 0.00 73 1021.5
20260902081651 23 65 4.8 12.9 0.00 0.00 0.00 74 1021.6
20260902080123 23 77 4.8 12.9 0.00 0.00 0.00 74 1021.4
20260902074527 23 71 3.2 8.0 0.00 0.00 0.00 75 1021.2
20260902073034 22 63 1.6 4.8 0.00 0.00 0.00 77 1021.0
20260902071559 22 75 0.0 3.2 0.00 0.00 0.00 80 1021.0
20260902070039 21 360 0.0 3.2 0.00 0.00 0.00 86 1021.0
20260902064612 20 24 0.0 3.2 0.00 0.00 0.00 89 1020.9
20260902063035 18 264 0.0 3.2 0.00 0.00 0.00 92 1020.7
20260902061557 18 264 1.6 3.2 0.00 0.00 0.00 92 1020.6
20260902060128 18 264 0.0 3.2 0.00 0.00 0.00 93 1020.6
20260902054622 18 264 0.0 3.2 0.00 0.00 0.00 93 1020.5
20260902051702 17 267 1.6 3.2 0.00 0.00 0.00 92 1020.4
20260902050156 18 267 0.0 0.0 0.00 0.00 0.00 92 1020.3
20260902044532 18 267 0.0 3.2 0.00 0.00 0.00 92 1020.4
20260902043110 18 264 1.6 3.2 0.00 0.00 0.00 92 1020.2
20260902041613 18 281 1.6 3.2 0.00 0.00 0.00 92 1020.1
20260902040118 18 281 0.0 3.2 0.00 0.00 0.00 91 1020.1
20260902034615 18 281 0.0 1.6 0.00 0.00 0.00 91 1020.3
20260902033129 18 264 3.2 6.4 0.00 0.00 0.00 91 1020.1
20260902031645 18 273 0.0 4.8 0.00 0.00 0.00 91 1020.1
20260902024510 18 279 0.0 3.2 0.00 0.00 0.00 90 1020.1
20260902023010 19 279 0.0 3.2 0.00 0.00 0.00 89 1020.1
20260902021543 19 250 1.6 4.8 0.00 0.00 0.00 90 1020.0
20260902020145 19 201 0.0 3.2 0.00 0.00 0.00 88 1020.2
20260902014531 20 201 0.0 4.8 0.00 0.00 0.00 88 1020.3
20260902013019 20 246 0.0 3.2 0.00 0.00 0.00 87 1020.2
20260902011530 20 261 1.6 4.8 0.00 0.00 0.00 88 1020.3
20260902010035 20 266 3.2 6.4 0.00 0.00 0.00 87 1020.4
20260902004502 21 265 0.0 6.4 0.00 0.00 0.00 85 1020.4
20260902003027 21 250 3.2 8.0 0.00 0.00 0.00 86 1020.5
20260902001601 21 243 3.2 6.4 0.00 0.00 0.00 86 1020.6
20260902000107 21 268 4.8 9.7 0.00 0.00 0.00 87 1020.6
20260901234535 20 260 6.4 9.7 0.00 0.00 0.00 88 1020.7
20260901233028 20 255 4.8 6.4 0.00 0.00 0.00 89 1020.6
20260901231556 20 281 3.2 9.7 0.00 0.00 0.00 89 1020.7
20260901230107 20 264 4.8 6.4 0.00 0.00 0.00 88 1020.7
20260901224516 20 246 3.2 6.4 0.00 0.00 0.00 89 1020.7
20260901223044 19 263 6.4 9.7 0.00 0.00 0.00 89 1020.6
20260901221632 20 274 4.8 6.4 0.00 0.00 0.00 88 1020.7
20260901220012 20 287 0.0 4.8 0.00 0.00 0.00 88 1020.7
20260901214625 20 266 1.6 4.8 0.00 0.00 0.00 86 1020.5
20260901213120 20 347 1.6 4.8 0.00 0.00 0.00 86 1020.5
20260901211641 20 312 0.0 4.8 0.00 0.00 0.00 86 1020.4
20260901210135 21 262 1.6 4.8 0.00 0.00 0.00 85 1020.3
20260901204642 21 318 1.6 6.4 0.00 0.00 0.00 84 1020.1
20260901203156 21 331 1.6 4.8 0.00 0.00 0.00 84 1020.0
20260901200055 22 52 1.6 3.2 0.00 0.00 0.00 82 1019.8
20260901194602 22 287 0.0 3.2 0.00 0.00 0.00 79 1019.5
20260901193122 22 287 1.6 4.8 0.00 0.00 0.00 79 1019.4
20260901191608 23 275 1.6 9.7 0.00 0.00 0.00 77 1019.1
20260901190100 23 356 1.6 4.8 0.00 0.00 0.00 76 1018.8
20260901190002 23 358 0.0 0.0 4.19 0.00 0.00 76 1018.9
20260901184522 24 286 0.0 3.2 0.00 0.00 0.00 74 1018.7
20260901183044 25 136 0.0 3.2 0.00 0.00 0.00 73 1018.6
20260901181520 25 110 4.8 11.3 0.00 0.00 0.00 73 1018.6
20260901180005 25 151 1.6 6.4 0.00 0.00 0.00 71 1018.8
20260901174558 25 127 4.8 11.3 0.00 0.00 0.00 71 1018.8
20260901173039 26 79 6.4 11.3 0.00 0.00 0.00 69 1018.8
20260901171606 26 96 4.8 9.7 0.00 0.00 0.00 68 1019.0
20260901170059 26 104 4.8 16.1 0.00 0.00 0.00 66 1019.2
20260901164613 26 93 4.8 19.3 0.00 0.00 0.00 68 1019.2
20260901161516 26 94 1.6 12.9 0.00 0.00 0.00 68 1019.1
20260901160154 26 131 6.4 16.1 0.00 0.00 0.00 69 1019.3
20260901153027 25 129 11.3 16.1 0.00 0.00 0.00 70 1019.3
20260901151551 25 131 9.7 17.7 0.00 0.00 0.00 72 1019.9
20260901150003 25 71 11.3 24.1 0.00 0.00 0.00 72 1020.1
20260901144505 25 125 9.7 19.3 0.00 0.00 0.00 72 1020.0
20260901143028 25 125 9.7 22.5 0.00 0.00 0.00 71 1020.0
20260901141542 25 155 6.4 22.5 0.00 0.00 0.00 72 1020.4
20260901140046 26 121 11.3 19.3 0.00 0.00 0.00 70 1020.1
20260901134628 25 88 8.0 17.7 0.00 0.00 0.00 72 1019.8
20260901133101 25 121 4.8 16.1 0.00 0.00 0.00 73 1020.3
20260901130005 25 85 8.0 16.1 0.00 0.00 0.00 74 1020.5
20260901124527 25 113 9.7 17.7 0.00 0.00 0.00 74 1020.9
20260901123049 25 74 11.3 17.7 0.00 0.00 0.00 75 1020.9
20260901121615 25 108 9.7 17.7 0.00 0.00 0.00 74 1020.9
20260901120056 25 62 8.0 19.3 0.00 0.00 0.00 74 1021.1
20260901114631 25 129 6.4 16.1 0.00 0.00 0.00 71 1020.9